Location: Gorze? G�rny
(49.8500°N, 19.5000°E)
Time: 02:14:18
(UTC+00:00)

ONEWEB-0018 - Visible Passes

Search period start: 29 November 2021 00:00
Search period end: 09 December 2021 00:00
Orbit: 1216 x 1219 km, 87.9° (Epoch: 28 November)

Date Brightness Start Highest point End Pass type
(mag) Time Alt. Az. Time Alt. Az. Time Alt. Az.
29 Nov ? 04:22:32 10° N 04:29:34 45° E 04:36:34 10° SSE visible
29 Nov ? 16:47:34 10° SSE 16:54:34 49° E 17:01:36 10° N visible
29 Nov ? 18:37:48 10° SW 18:44:38 40° WNW 18:51:31 10° N visible
30 Nov ? 04:10:52 10° N 04:17:47 41° ENE 04:24:39 10° SE visible
30 Nov ? 16:36:01 10° SSE 16:42:54 45° E 16:49:49 10° NNE visible
30 Nov ? 18:25:52 10° SSW 18:32:50 44° WNW 18:39:52 10° N visible
01 Dec ? 03:59:12 10° N 04:05:59 37° ENE 04:12:42 10° SE visible
01 Dec ? 16:24:30 10° SE 16:31:15 41° ENE 16:38:01 10° NNE visible
01 Dec ? 18:13:58 10° SSW 18:21:03 48° W 18:28:11 10° N visible
01 Dec ? 20:12:47 10° WNW 20:13:06 10° NW 20:13:26 10° NW visible
02 Dec ? 03:47:34 10° NNE 03:54:10 34° ENE 04:00:44 10° SE visible
02 Dec ? 05:37:16 10° N 05:44:29 58° W 05:51:39 10° SSW visible
02 Dec ? 16:13:01 10° SE 16:19:36 37° ENE 16:26:13 10° NNE visible
02 Dec ? 18:02:06 10° SSW 18:09:17 53° W 18:16:30 10° N visible
02 Dec ? 19:58:59 10° WNW 20:01:10 11° WNW 20:03:23 10° NW visible
03 Dec ? 03:35:56 10° NNE 03:42:21 31° ENE 03:48:43 10° SE visible
03 Dec ? 05:25:30 10° N 05:32:47 64° W 05:40:03 10° SSW visible
03 Dec ? 16:01:34 10° SE 16:07:58 34° ENE 16:14:23 10° NNE visible
03 Dec ? 17:50:16 10° SSW 17:57:30 58° W 18:04:48 10° N visible
03 Dec ? 19:46:11 10° W 19:49:15 13° WNW 19:52:19 10° NW visible
04 Dec ? 03:24:19 10° NNE 03:30:32 28° ENE 03:36:41 10° SE visible
04 Dec ? 05:13:45 10° N 05:21:06 70° W 05:28:24 10° SSW visible
04 Dec ? 15:50:08 10° SE 15:56:21 31° ENE 16:02:33 10° NNE visible
04 Dec ? 17:38:27 10° SSW 17:45:45 64° W 17:53:07 10° N visible
04 Dec ? 19:33:38 10° W 19:37:20 14° WNW 19:41:03 10° NNW visible
05 Dec ? 03:12:43 10° NNE 03:18:41 26° ENE 03:24:37 10° SE visible
05 Dec ? 05:02:00 10° N 05:09:24 76° W 05:16:46 10° S visible
05 Dec ? 15:38:44 10° SE 15:44:43 28° ENE 15:50:42 10° NNE visible
05 Dec ? 17:26:39 10° S 17:34:00 70° W 17:41:25 10° N visible
05 Dec ? 19:21:13 10° W 19:25:26 16° WNW 19:29:41 10° NNW visible
06 Dec ? 03:01:08 10° NNE 03:06:50 23° ENE 03:12:30 10° ESE visible
06 Dec ? 04:50:16 10° N 04:57:42 83° W 05:05:05 10° S visible
06 Dec ? 15:27:22 10° ESE 15:33:07 25° ENE 15:38:51 10° NNE visible
06 Dec ? 17:14:53 10° S 17:22:16 76° W 17:29:42 10° N visible
06 Dec ? 19:08:53 10° WSW 19:13:32 17° WNW 19:18:14 10° NNW visible
07 Dec ? 02:49:35 10° NNE 02:54:59 21° ENE 03:00:21 10° ESE visible
07 Dec ? 04:38:32 10° N 04:45:59 90° E 04:53:23 10° S visible
07 Dec ? 15:16:02 10° ESE 15:21:30 23° ENE 15:26:59 10° NNE visible
07 Dec ? 17:03:09 10° S 17:10:32 83° W 17:18:00 10° N visible
07 Dec ? 18:56:38 10° WSW 19:01:40 19° WNW 19:06:45 10° NNW visible
08 Dec ? 02:38:03 10° NNE 02:43:07 19° ENE 02:48:09 10° ESE visible
08 Dec ? 04:26:49 10° N 04:34:16 83° E 04:41:40 10° S visible
08 Dec ? 16:51:26 10° S 16:58:49 90° E 17:06:16 10° N visible
08 Dec ? 18:44:26 10° WSW 18:49:49 21° WNW 18:55:13 10° NNW visible
